| time (UTC) | temp F | wind direction | speed MPH | gust MPH | rain 1hr in | rain 24hr in | rain mn in | humidity % | barometer mb |
| 20260902102207 | 55 | 149 | 0.0 | 0.0 | 0.00 | 0.00 | 0.00 | 94 | 1019.2 |
| 20260902101702 | 55 | 149 | 0.0 | 0.0 | 0.00 | 0.00 | 0.00 | 94 | 1019.4 |
| 20260902101156 | 55 | 149 | 0.0 | 0.0 | 0.00 | 0.00 | 0.00 | 94 | 1019.6 |
| 20260902100656 | 55 | 149 | 0.0 | 0.0 | 0.00 | 0.00 | 0.00 | 94 | 1019.7 |
| 20260902100150 | 55 | 149 | 0.0 | 0.0 | 0.00 | 0.00 | 0.00 | 94 | 1019.6 |
| 20260902095649 | 55 | 149 | 0.0 | 0.0 | 0.00 | 0.00 | 0.00 | 94 | 1019.3 |
| 20260902095144 | 55 | 155 | 0.0 | 0.0 | 0.00 | 0.00 | 0.00 | 94 | 1019.7 |
| 20260902094639 | 55 | 155 | 0.0 | 0.0 | 0.00 | 0.00 | 0.00 | 94 | 1019.2 |
| 20260902094136 | 55 | 144 | 0.0 | 0.0 | 0.00 | 0.00 | 0.00 | 94 | 1019.4 |
| 20260902093635 | 55 | 144 | 0.0 | 0.0 | 0.00 | 0.00 | 0.00 | 93 | 1019.3 |
| 20260902093130 | 56 | 144 | 0.0 | 0.0 | 0.00 | 0.00 | 0.00 | 93 | 1019.6 |
| 20260902092624 | 56 | 142 | 0.0 | 0.0 | 0.00 | 0.00 | 0.00 | 93 | 1019.6 |
| 20260902092120 | 56 | 148 | 0.0 | 0.0 | 0.00 | 0.00 | 0.00 | 93 | 1019.6 |
| 20260902091615 | 56 | 142 | 0.0 | 0.0 | 0.00 | 0.00 | 0.00 | 93 | 1019.6 |
| 20260902091111 | 56 | 142 | 0.0 | 0.0 | 0.00 | 0.00 | 0.00 | 93 | 1019.7 |
| 20260902090607 | 56 | 155 | 0.0 | 0.0 | 0.00 | 0.00 | 0.00 | 94 | 1019.8 |
| 20260902090105 | 56 | 156 | 0.0 | 0.0 | 0.00 | 0.00 | 0.00 | 93 | 1019.7 |
| 20260902085606 | 56 | 164 | 0.0 | 0.0 | 0.00 | 0.00 | 0.00 | 93 | 1019.7 |
| 20260902085101 | 56 | 145 | 0.0 | 0.0 | 0.00 | 0.00 | 0.00 | 93 | 1019.7 |
| 20260902084557 | 56 | 144 | 0.0 | 0.0 | 0.00 | 0.00 | 0.00 | 92 | 1019.6 |
| 20260902084053 | 57 | 144 | 0.0 | 0.0 | 0.00 | 0.00 | 0.00 | 92 | 1019.7 |
| 20260902083548 | 57 | 137 | 0.0 | 0.0 | 0.00 | 0.00 | 0.00 | 92 | 1019.7 |
| 20260902083047 | 57 | 156 | 0.0 | 0.0 | 0.00 | 0.00 | 0.00 | 92 | 1019.7 |
| 20260902082543 | 57 | 158 | 0.0 | 0.0 | 0.00 | 0.00 | 0.00 | 92 | 1019.7 |
| 20260902082039 | 57 | 149 | 0.0 | 0.0 | 0.00 | 0.00 | 0.00 | 92 | 1019.7 |
| 20260902081536 | 57 | 147 | 0.0 | 0.0 | 0.00 | 0.00 | 0.00 | 91 | 1019.6 |
| 20260902081035 | 57 | 153 | 0.0 | 0.0 | 0.00 | 0.00 | 0.00 | 91 | 1019.9 |
| 20260902080531 | 57 | 149 | 0.0 | 0.0 | 0.00 | 0.00 | 0.00 | 91 | 1019.7 |
| 20260902080027 | 58 | 146 | 0.0 | 0.0 | 0.00 | 0.00 | 0.00 | 90 | 1019.8 |
| 20260902075527 | 58 | 143 | 0.0 | 0.0 | 0.00 | 0.00 | 0.00 | 90 | 1019.7 |
| 20260902075023 | 59 | 136 | 0.0 | 0.0 | 0.00 | 0.00 | 0.00 | 91 | 1019.9 |
| 20260902074518 | 59 | 136 | 0.0 | 0.0 | 0.00 | 0.00 | 0.00 | 92 | 1019.8 |
| 20260902074013 | 59 | 171 | 0.0 | 0.0 | 0.00 | 0.00 | 0.00 | 93 | 1019.4 |
| 20260902073503 | 59 | 155 | 0.0 | 0.0 | 0.00 | 0.00 | 0.00 | 91 | 1019.4 |
| 20260902073000 | 58 | 197 | 0.0 | 0.0 | 0.00 | 0.00 | 0.00 | 91 | 1019.4 |
| 20260902072455 | 58 | 147 | 0.0 | 0.0 | 0.00 | 0.00 | 0.00 | 89 | 1019.7 |
| 20260902071951 | 58 | 152 | 0.0 | 0.0 | 0.00 | 0.00 | 0.00 | 89 | 1019.8 |
| 20260902071451 | 58 | 143 | 0.0 | 0.0 | 0.00 | 0.00 | 0.00 | 89 | 1019.2 |
| 20260902070947 | 59 | 171 | 0.0 | 0.0 | 0.00 | 0.00 | 0.00 | 89 | 1019.4 |
| 20260902070443 | 59 | 164 | 0.0 | 0.0 | 0.00 | 0.00 | 0.00 | 89 | 1019.6 |
| 20260902065941 | 59 | 157 | 0.0 | 0.0 | 0.00 | 0.00 | 0.00 | 90 | 1019.7 |
| 20260902065436 | 59 | 163 | 1.0 | 1.0 | 0.00 | 0.00 | 0.00 | 91 | 1019.4 |
| 20260902064932 | 59 | 165 | 0.0 | 0.0 | 0.00 | 0.00 | 0.00 | 89 | 1019.3 |
| 20260902064427 | 59 | 173 | 0.0 | 0.0 | 0.00 | 0.00 | 0.00 | 90 | 1019.6 |
| 20260902063923 | 59 | 157 | 0.0 | 0.0 | 0.00 | 0.00 | 0.00 | 91 | 1019.1 |
| 20260902063423 | 59 | 159 | 0.0 | 0.0 | 0.00 | 0.00 | 0.00 | 91 | 1019.3 |
| 20260902062917 | 59 | 149 | 0.0 | 0.0 | 0.00 | 0.00 | 0.00 | 91 | 1019.0 |
| 20260902062416 | 59 | 149 | 0.0 | 0.0 | 0.00 | 0.00 | 0.00 | 91 | 1019.1 |
| 20260902061911 | 59 | 149 | 0.0 | 0.0 | 0.00 | 0.00 | 0.00 | 91 | 1019.1 |
| 20260902061407 | 59 | 149 | 0.0 | 0.0 | 0.00 | 0.00 | 0.00 | 91 | 1019.1 |
| 20260902060903 | 59 | 149 | 0.0 | 0.0 | 0.00 | 0.00 | 0.00 | 90 | 1019.3 |
| 20260902060358 | 59 | 149 | 0.0 | 0.0 | 0.00 | 0.00 | 0.00 | 90 | 1019.2 |
| 20260902055854 | 59 | 149 | 0.0 | 0.0 | 0.00 | 0.00 | 0.00 | 91 | 1019.1 |
| 20260902055350 | 60 | 149 | 0.0 | 0.0 | 0.00 | 0.00 | 0.00 | 90 | 1019.1 |
| 20260902054845 | 60 | 149 | 0.0 | 0.0 | 0.00 | 0.00 | 0.00 | 90 | 1019.2 |
| 20260902054340 | 60 | 149 | 0.0 | 0.0 | 0.00 | 0.00 | 0.00 | 90 | 1019.1 |
| 20260902053836 | 60 | 149 | 0.0 | 0.0 | 0.00 | 0.00 | 0.00 | 90 | 1019.2 |
| 20260902053331 | 60 | 149 | 0.0 | 0.0 | 0.00 | 0.00 | 0.00 | 90 | 1019.2 |
| 20260902052830 | 60 | 149 | 0.0 | 0.0 | 0.00 | 0.00 | 0.00 | 89 | 1019.1 |
| 20260902052325 | 61 | 155 | 0.0 | 0.0 | 0.00 | 0.00 | 0.00 | 89 | 1019.2 |
| 20260902051820 | 60 | 162 | 0.0 | 0.0 | 0.00 | 0.00 | 0.00 | 90 | 1019.1 |
| 20260902051320 | 60 | 163 | 0.0 | 0.0 | 0.00 | 0.00 | 0.00 | 89 | 1019.3 |
| 20260902050814 | 60 | 164 | 0.0 | 0.0 | 0.00 | 0.00 | 0.00 | 89 | 1019.1 |
| 20260902050314 | 60 | 164 | 0.0 | 0.0 | 0.00 | 0.00 | 0.00 | 89 | 1019.2 |
| 20260902045809 | 60 | 164 | 0.0 | 0.0 | 0.00 | 0.00 | 0.00 | 89 | 1019.4 |
| 20260902045306 | 60 | 165 | 0.0 | 0.0 | 0.00 | 0.00 | 0.00 | 89 | 1019.1 |
| 20260902044801 | 61 | 165 | 0.0 | 0.0 | 0.00 | 0.00 | 0.00 | 87 | 1019.2 |
| 20260902044256 | 61 | 165 | 0.0 | 0.0 | 0.00 | 0.00 | 0.00 | 88 | 1019.0 |
| 20260902043751 | 61 | 165 | 0.0 | 0.0 | 0.00 | 0.00 | 0.00 | 88 | 1019.1 |
| 20260902043247 | 61 | 166 | 0.0 | 0.0 | 0.00 | 0.00 | 0.00 | 88 | 1019.0 |
| 20260902042745 | 61 | 166 | 0.0 | 0.0 | 0.00 | 0.00 | 0.00 | 86 | 1019.1 |
| 20260902042240 | 62 | 167 | 0.0 | 0.0 | 0.00 | 0.00 | 0.00 | 86 | 1018.9 |
| 20260902041736 | 62 | 167 | 0.0 | 0.0 | 0.00 | 0.00 | 0.00 | 86 | 1018.9 |
| 20260902041236 | 62 | 168 | 0.0 | 0.0 | 0.00 | 0.00 | 0.00 | 85 | 1018.7 |
| 20260902040735 | 62 | 171 | 0.0 | 0.0 | 0.00 | 0.00 | 0.00 | 84 | 1019.0 |
| 20260902040230 | 63 | 171 | 0.0 | 0.0 | 0.00 | 0.00 | 0.00 | 84 | 1018.6 |
| 20260902035729 | 63 | 171 | 0.0 | 0.0 | 0.00 | 0.00 | 0.00 | 84 | 1018.8 |
| 20260902035225 | 63 | 171 | 0.0 | 0.0 | 0.00 | 0.00 | 0.00 | 84 | 1018.8 |
| 20260902034723 | 64 | 174 | 0.0 | 0.0 | 0.00 | 0.00 | 0.00 | 83 | 1018.7 |
| 20260902034218 | 64 | 171 | 0.0 | 0.0 | 0.00 | 0.00 | 0.00 | 83 | 1018.6 |
| 20260902033717 | 64 | 190 | 0.0 | 0.0 | 0.00 | 0.00 | 0.00 | 82 | 1018.7 |
| 20260902033212 | 64 | 176 | 0.0 | 2.0 | 0.00 | 0.00 | 0.00 | 81 | 1018.6 |
| 20260902032710 | 64 | 162 | 0.0 | 0.0 | 0.00 | 0.00 | 0.00 | 80 | 1018.5 |
| 20260902032206 | 64 | 164 | 0.0 | 0.0 | 0.00 | 0.00 | 0.00 | 80 | 1018.3 |
| 20260902031705 | 65 | 169 | 0.0 | 0.0 | 0.00 | 0.00 | 0.00 | 79 | 1018.3 |
| 20260902031201 | 65 | 170 | 0.0 | 0.0 | 0.00 | 0.00 | 0.00 | 78 | 1018.3 |
| 20260902030656 | 65 | 170 | 0.0 | 0.0 | 0.00 | 0.00 | 0.00 | 78 | 1018.3 |
| 20260902030156 | 65 | 156 | 0.0 | 0.0 | 0.00 | 0.00 | 0.00 | 77 | 1018.4 |
| 20260902025650 | 65 | 164 | 0.0 | 0.0 | 0.00 | 0.00 | 0.00 | 76 | 1018.3 |
| 20260902025146 | 66 | 180 | 1.0 | 1.0 | 0.00 | 0.00 | 0.00 | 76 | 1018.2 |
| 20260902024641 | 66 | 165 | 0.0 | 2.0 | 0.00 | 0.00 | 0.00 | 75 | 1017.9 |
| 20260902024136 | 66 | 212 | 1.0 | 2.0 | 0.00 | 0.00 | 0.00 | 74 | 1018.0 |
| 20260902023631 | 66 | 199 | 2.0 | 2.0 | 0.00 | 0.00 | 0.00 | 74 | 1018.0 |
| 20260902023126 | 67 | 121 | 0.0 | 0.0 | 0.00 | 0.00 | 0.00 | 73 | 1018.0 |
| 20260902022625 | 67 | 153 | 0.0 | 1.0 | 0.00 | 0.00 | 0.00 | 72 | 1017.8 |
| 20260902022122 | 68 | 218 | 1.0 | 2.0 | 0.00 | 0.00 | 0.00 | 72 | 1017.8 |
| 20260902021617 | 68 | 221 | 1.0 | 2.0 | 0.00 | 0.00 | 0.00 | 71 | 1017.9 |
| 20260902021112 | 69 | 207 | 2.0 | 2.0 | 0.00 | 0.00 | 0.00 | 69 | 1018.2 |
| 20260902020608 | 69 | 96 | 1.0 | 1.0 | 0.00 | 0.00 | 0.00 | 68 | 1017.8 |
| 20260902020103 | 69 | 133 | 0.0 | 1.0 | 0.00 | 0.00 | 0.00 | 67 | 1017.6 |
| 20260902015559 | 70 | 147 | 1.0 | 1.0 | 0.00 | 0.00 | 0.00 | 65 | 1018.0 |
| 20260902015054 | 70 | 156 | 0.0 | 0.0 | 0.00 | 0.00 | 0.00 | 64 | 1018.0 |
| 20260902014550 | 70 | 127 | 1.0 | 2.0 | 0.00 | 0.00 | 0.00 | 64 | 1017.8 |
| 20260902014045 | 71 | 204 | 1.0 | 2.0 | 0.00 | 0.00 | 0.00 | 63 | 1017.7 |
| 20260902013545 | 71 | 264 | 2.0 | 4.0 | 0.00 | 0.00 | 0.00 | 62 | 1017.8 |
| 20260902013041 | 72 | 48 | 1.0 | 2.0 | 0.00 | 0.00 | 0.00 | 61 | 1017.7 |
| 20260902012536 | 73 | 101 | 1.0 | 1.0 | 0.00 | 0.00 | 0.00 | 60 | 1017.9 |
| 20260902012031 | 73 | 336 | 1.0 | 2.0 | 0.00 | 0.00 | 0.00 | 59 | 1017.7 |
| 20260902011532 | 74 | 259 | 0.0 | 0.0 | 0.00 | 0.00 | 0.00 | 59 | 1017.7 |
| 20260902011032 | 74 | 161 | 0.0 | 2.0 | 0.00 | 0.00 | 0.00 | 59 | 1017.9 |
| 20260902010531 | 74 | 226 | 1.0 | 2.0 | 0.00 | 0.00 | 0.00 | 59 | 1017.7 |
| 20260902010027 | 74 | 163 | 2.0 | 3.0 | 0.00 | 0.00 | 0.00 | 59 | 1017.8 |
| 20260902005524 | 75 | 267 | 4.0 | 6.0 | 0.00 | 0.00 | 0.00 | 59 | 1017.9 |
| 20260902005021 | 75 | 110 | 0.0 | 1.0 | 0.00 | 0.00 | 0.00 | 60 | 1017.7 |
| 20260902004520 | 74 | 207 | 1.0 | 3.0 | 0.00 | 0.00 | 0.00 | 61 | 1017.9 |
| 20260902004016 | 75 | 171 | 1.0 | 2.0 | 0.00 | 0.00 | 0.00 | 61 | 1018.0 |
| 20260902003511 | 75 | 291 | 1.0 | 2.0 | 0.00 | 0.00 | 0.00 | 62 | 1017.9 |
| 20260902003006 | 75 | 222 | 4.0 | 6.0 | 0.00 | 0.00 | 0.00 | 61 | 1018.1 |
| 20260902002503 | 75 | 129 | 0.0 | 2.0 | 0.00 | 0.00 | 0.00 | 61 | 1017.9 |
| 20260902002001 | 75 | 170 | 0.0 | 2.0 | 0.00 | 0.00 | 0.00 | 61 | 1017.9 |
| 20260902001456 | 75 | 138 | 1.0 | 2.0 | 0.00 | 0.00 | 0.00 | 62 | 1017.8 |
| 20260902000952 | 76 | 279 | 4.0 | 6.0 | 0.00 | 0.00 | 0.00 | 61 | 1018.1 |
| 20260902000447 | 75 | 161 | 0.0 | 2.0 | 0.00 | 0.00 | 0.00 | 62 | 1018.0 |
| 20260901235941 | 76 | 130 | 1.0 | 7.0 | 0.00 | 0.00 | 0.00 | 62 | 1018.1 |
| 20260901235436 | 76 | 121 | 0.0 | 2.0 | 0.00 | 0.00 | 0.00 | 63 | 1018.0 |
| 20260901234932 | 76 | 230 | 3.0 | 4.0 | 0.00 | 0.00 | 0.00 | 61 | 1017.9 |
| 20260901234426 | 76 | 303 | 4.0 | 6.0 | 0.00 | 0.00 | 0.00 | 62 | 1018.2 |
| 20260901233920 | 76 | 224 | 2.0 | 3.0 | 0.00 | 0.00 | 0.00 | 61 | 1018.0 |
| 20260901233415 | 77 | 183 | 2.0 | 6.0 | 0.00 | 0.00 | 0.00 | 61 | 1017.9 |
| 20260901232912 | 77 | 305 | 1.0 | 2.0 | 0.00 | 0.00 | 0.00 | 61 | 1018.1 |
| 20260901232407 | 76 | 261 | 4.0 | 8.0 | 0.00 | 0.00 | 0.00 | 61 | 1018.1 |
| 20260901231902 | 77 | 188 | 4.0 | 6.0 | 0.00 | 0.00 | 0.00 | 60 | 1018.1 |
| 20260901231358 | 77 | 146 | 2.0 | 8.0 | 0.00 | 0.00 | 0.00 | 61 | 1018.5 |
| 20260901230855 | 77 | 218 | 5.0 | 7.0 | 0.00 | 0.00 | 0.00 | 59 | 1018.3 |
| 20260901230354 | 78 | 232 | 3.0 | 7.0 | 0.00 | 0.00 | 0.00 | 59 | 1018.2 |
| 20260901225850 | 78 | 288 | 3.0 | 6.0 | 0.00 | 0.00 | 0.00 | 59 | 1018.5 |
| 20260901225349 | 77 | 186 | 1.0 | 3.0 | 0.00 | 0.00 | 0.00 | 59 | 1018.5 |
| 20260901224844 | 78 | 178 | 4.0 | 11.0 | 0.00 | 0.00 | 0.00 | 59 | 1018.4 |
| 20260901224340 | 77 | 248 | 5.0 | 7.0 | 0.00 | 0.00 | 0.00 | 60 | 1018.6 |
| 20260901223836 | 78 | 258 | 3.0 | 9.0 | 0.00 | 0.00 | 0.00 | 60 | 1018.5 |
| 20260901223332 | 78 | 243 | 2.0 | 6.0 | 0.00 | 0.00 | 0.00 | 59 | 1018.5 |
| 20260901222827 | 78 | 354 | 2.0 | 8.0 | 0.00 | 0.00 | 0.00 | 59 | 1018.4 |
| 20260901222323 | 78 | 297 | 6.0 | 7.0 | 0.00 | 0.00 | 0.00 | 59 | 1018.5 |
| 20260901221819 | 78 | 195 | 1.0 | 3.0 | 0.00 | 0.00 | 0.00 | 59 | 1018.5 |
| 20260901221315 | 78 | 230 | 2.0 | 7.0 | 0.00 | 0.00 | 0.00 | 58 | 1018.5 |
| 20260901220813 | 79 | 307 | 2.0 | 7.0 | 0.00 | 0.00 | 0.00 | 58 | 1018.6 |
| 20260901220307 | 79 | 283 | 4.0 | 8.0 | 0.00 | 0.00 | 0.00 | 58 | 1018.4 |
| 20260901215806 | 79 | 298 | 4.0 | 4.0 | 0.00 | 0.00 | 0.00 | 58 | 1018.5 |
| 20260901215306 | 79 | 244 | 2.0 | 4.0 | 0.00 | 0.00 | 0.00 | 59 | 1018.6 |
| 20260901214804 | 80 | 344 | 3.0 | 7.0 | 0.00 | 0.00 | 0.00 | 57 | 1018.5 |
| 20260901214303 | 80 | 181 | 3.0 | 6.0 | 0.00 | 0.00 | 0.00 | 58 | 1018.6 |
| 20260901213758 | 80 | 213 | 2.0 | 6.0 | 0.00 | 0.00 | 0.00 | 59 | 1018.5 |
| 20260901213252 | 80 | 163 | 1.0 | 2.0 | 0.00 | 0.00 | 0.00 | 60 | 1018.6 |
| 20260901212746 | 80 | 234 | 2.0 | 7.0 | 0.00 | 0.00 | 0.00 | 59 | 1018.6 |
| 20260901212242 | 80 | 149 | 1.0 | 2.0 | 0.00 | 0.00 | 0.00 | 59 | 1018.8 |
| 20260901211737 | 80 | 316 | 1.0 | 6.0 | 0.00 | 0.00 | 0.00 | 59 | 1018.7 |
| 20260901211234 | 79 | 216 | 3.0 | 7.0 | 0.00 | 0.00 | 0.00 | 60 | 1018.6 |
| 20260901210730 | 80 | 299 | 4.0 | 7.0 | 0.00 | 0.00 | 0.00 | 59 | 1018.9 |
| 20260901210225 | 80 | 62 | 1.0 | 6.0 | 0.00 | 0.00 | 0.00 | 60 | 1018.8 |
| 20260901205721 | 79 | 263 | 5.0 | 7.0 | 0.00 | 0.00 | 0.00 | 59 | 1018.8 |
| 20260901205221 | 79 | 309 | 3.0 | 13.0 | 0.00 | 0.00 | 0.00 | 60 | 1018.9 |
| 20260901204716 | 80 | 24 | 2.0 | 2.0 | 0.00 | 0.00 | 0.00 | 60 | 1018.7 |
| 20260901204212 | 80 | 339 | 2.0 | 6.0 | 0.00 | 0.00 | 0.00 | 59 | 1018.9 |
| 20260901203707 | 80 | 292 | 2.0 | 4.0 | 0.00 | 0.00 | 0.00 | 59 | 1018.8 |
| 20260901203201 | 80 | 124 | 1.0 | 4.0 | 0.00 | 0.00 | 0.00 | 59 | 1018.9 |
| 20260901202701 | 79 | 112 | 1.0 | 3.0 | 0.00 | 0.00 | 0.00 | 60 | 1018.7 |
| 20260901202157 | 79 | 64 | 0.0 | 2.0 | 0.00 | 0.00 | 0.00 | 60 | 1018.9 |
| 20260901201652 | 79 | 273 | 4.0 | 7.0 | 0.00 | 0.00 | 0.00 | 59 | 1019.0 |
| 20260901201151 | 80 | 173 | 1.0 | 2.0 | 0.00 | 0.00 | 0.00 | 58 | 1019.1 |
| 20260901200651 | 80 | 298 | 1.0 | 7.0 | 0.00 | 0.00 | 0.00 | 59 | 1019.2 |
| 20260901200147 | 80 | 73 | 2.0 | 6.0 | 0.00 | 0.00 | 0.00 | 58 | 1019.1 |
| 20260901195643 | 80 | 156 | 3.0 | 3.0 | 0.00 | 0.00 | 0.00 | 58 | 1019.3 |
| 20260901195138 | 79 | 113 | 1.0 | 8.0 | 0.00 | 0.00 | 0.00 | 59 | 1019.3 |
| 20260901194633 | 80 | 166 | 1.0 | 3.0 | 0.00 | 0.00 | 0.00 | 59 | 1019.2 |
| 20260901194129 | 80 | 155 | 1.0 | 6.0 | 0.00 | 0.00 | 0.00 | 59 | 1019.6 |
| 20260901193624 | 80 | 15 | 1.0 | 6.0 | 0.00 | 0.00 | 0.00 | 59 | 1019.4 |
| 20260901193118 | 80 | 119 | 1.0 | 2.0 | 0.00 | 0.00 | 0.00 | 60 | 1019.7 |
| 20260901192613 | 80 | 69 | 1.0 | 2.0 | 0.00 | 0.00 | 0.00 | 60 | 1019.4 |
| 20260901192108 | 79 | 98 | 2.0 | 2.0 | 0.00 | 0.00 | 0.00 | 59 | 1019.6 |
| 20260901191604 | 80 | 13 | 3.0 | 4.0 | 0.00 | 0.00 | 0.00 | 60 | 1019.6 |
| 20260901191100 | 80 | 180 | 3.0 | 7.0 | 0.00 | 0.00 | 0.00 | 58 | 1019.6 |
| 20260901190556 | 80 | 303 | 2.0 | 7.0 | 0.00 | 0.00 | 0.00 | 59 | 1019.6 |
| 20260901190055 | 79 | 140 | 0.0 | 3.0 | 0.00 | 0.00 | 0.00 | 60 | 1019.8 |
| 20260901185553 | 79 | 186 | 4.0 | 6.0 | 0.00 | 0.00 | 0.00 | 59 | 1019.7 |
| 20260901185052 | 80 | 90 | 2.0 | 6.0 | 0.00 | 0.00 | 0.00 | 58 | 1019.4 |
| 20260901184548 | 80 | 305 | 6.0 | 8.0 | 0.00 | 0.00 | 0.00 | 58 | 1019.7 |
| 20260901184043 | 80 | 162 | 2.0 | 3.0 | 0.00 | 0.00 | 0.00 | 58 | 1019.6 |
| 20260901183538 | 79 | 267 | 2.0 | 3.0 | 0.00 | 0.00 | 0.00 | 58 | 1019.7 |
| 20260901183033 | 79 | 63 | 1.0 | 3.0 | 0.00 | 0.00 | 0.00 | 59 | 1019.7 |
| 20260901182529 | 79 | 163 | 0.0 | 3.0 | 0.00 | 0.00 | 0.00 | 59 | 1019.6 |
| 20260901182024 | 79 | 148 | 1.0 | 4.0 | 0.00 | 0.00 | 0.00 | 57 | 1019.8 |
| 20260901181524 | 80 | 262 | 1.0 | 2.0 | 0.00 | 0.00 | 0.00 | 57 | 1019.7 |
| 20260901181023 | 80 | 141 | 0.0 | 2.0 | 0.00 | 0.00 | 0.00 | 59 | 1019.4 |
| 20260901180521 | 78 | 172 | 2.0 | 3.0 | 0.00 | 0.00 | 0.00 | 56 | 1019.6 |
| 20260901180016 | 79 | 231 | 2.0 | 3.0 | 0.00 | 0.00 | 0.00 | 56 | 1019.4 |
| 20260901175510 | 77 | 87 | 0.0 | 3.0 | 0.00 | 0.00 | 0.00 | 59 | 1019.4 |
| 20260901175004 | 77 | 179 | 2.0 | 3.0 | 0.00 | 0.00 | 0.00 | 61 | 1019.3 |
| 20260901174500 | 76 | 115 | 0.0 | 1.0 | 0.00 | 0.00 | 0.00 | 62 | 1019.4 |
| 20260901173956 | 76 | 103 | 0.0 | 1.0 | 0.00 | 0.00 | 0.00 | 63 | 1019.6 |
| 20260901173451 | 75 | 210 | 3.0 | 6.0 | 0.00 | 0.00 | 0.00 | 63 | 1019.6 |
| 20260901172947 | 75 | 296 | 1.0 | 1.0 | 0.00 | 0.00 | 0.00 | 65 | 1019.6 |
| 20260901172443 | 75 | 66 | 0.0 | 3.0 | 0.00 | 0.00 | 0.00 | 66 | 1019.4 |
| 20260901171940 | 74 | 52 | 1.0 | 1.0 | 0.00 | 0.00 | 0.00 | 67 | 1019.4 |
| 20260901171439 | 74 | 226 | 1.0 | 2.0 | 0.00 | 0.00 | 0.00 | 67 | 1019.1 |
| 20260901170938 | 73 | 110 | 2.0 | 2.0 | 0.00 | 0.00 | 0.00 | 69 | 1019.3 |
| 20260901170433 | 73 | 102 | 2.0 | 2.0 | 0.00 | 0.00 | 0.00 | 70 | 1019.2 |
| 20260901165932 | 72 | 105 | 0.0 | 0.0 | 0.00 | 0.00 | 0.00 | 73 | 1019.3 |
| 20260901165427 | 71 | 175 | 0.0 | 1.0 | 0.00 | 0.00 | 0.00 | 75 | 1019.7 |
| 20260901164924 | 70 | 120 | 2.0 | 2.0 | 0.00 | 0.00 | 0.00 | 78 | 1019.8 |
| 20260901164419 | 69 | 225 | 2.0 | 3.0 | 0.00 | 0.00 | 0.00 | 78 | 1019.7 |
| 20260901163919 | 69 | 271 | 3.0 | 4.0 | 0.00 | 0.00 | 0.00 | 78 | 1019.9 |
| 20260901163414 | 69 | 289 | 3.0 | 4.0 | 0.00 | 0.00 | 0.00 | 79 | 1019.8 |
| 20260901162908 | 69 | 203 | 1.0 | 3.0 | 0.00 | 0.00 | 0.00 | 79 | 1019.8 |
| 20260901162408 | 70 | 41 | 2.0 | 4.0 | 0.00 | 0.00 | 0.00 | 79 | 1019.6 |
| 20260901161907 | 69 | 81 | 0.0 | 1.0 | 0.00 | 0.00 | 0.00 | 79 | 1019.6 |
| 20260901161407 | 70 | 222 | 2.0 | 4.0 | 0.00 | 0.00 | 0.00 | 79 | 1019.4 |
| 20260901160901 | 70 | 94 | 0.0 | 1.0 | 0.00 | 0.00 | 0.00 | 78 | 1019.4 |
| 20260901160358 | 69 | 98 | 0.0 | 1.0 | 0.00 | 0.00 | 0.00 | 79 | 1019.4 |
| 20260901155857 | 68 | 94 | 0.0 | 0.0 | 0.00 | 0.00 | 0.00 | 83 | 1019.7 |
| 20260901155352 | 67 | 85 | 2.0 | 3.0 | 0.00 | 0.00 | 0.00 | 82 | 1019.1 |
| 20260901154849 | 67 | 116 | 1.0 | 2.0 | 0.00 | 0.00 | 0.00 | 84 | 1019.2 |
| 20260901154348 | 66 | 136 | 0.0 | 1.0 | 0.00 | 0.00 | 0.00 | 84 | 1019.2 |
| 20260901153843 | 64 | 139 | 0.0 | 1.0 | 0.00 | 0.00 | 0.00 | 88 | 1019.3 |
| 20260901153337 | 64 | 74 | 0.0 | 0.0 | 0.00 | 0.00 | 0.00 | 91 | 1019.4 |
| 20260901152836 | 62 | 164 | 0.0 | 0.0 | 0.00 | 0.00 | 0.00 | 93 | 1019.2 |
| 20260901152336 | 61 | 81 | 0.0 | 0.0 | 0.00 | 0.00 | 0.00 | 98 | 1019.3 |
| 20260901151831 | 60 | 104 | 0.0 | 0.0 | 0.00 | 0.00 | 0.00 | 99 | 1019.3 |
| 20260901151326 | 60 | 151 | 0.0 | 0.0 | 0.00 | 0.00 | 0.00 | 99 | 1019.4 |
| 20260901150820 | 59 | 139 | 0.0 | 0.0 | 0.00 | 0.00 | 0.00 | 99 | 1019.3 |
| 20260901150318 | 59 | 196 | 0.0 | 0.0 | 0.00 | 0.00 | 0.00 | 99 | 1019.4 |
| 20260901145815 | 59 | 115 | 0.0 | 0.0 | 0.00 | 0.00 | 0.00 | 99 | 1019.3 |
| 20260901145314 | 59 | 226 | 0.0 | 0.0 | 0.00 | 0.00 | 0.00 | 99 | 1019.4 |
| 20260901144805 | 59 | 180 | 0.0 | 0.0 | 0.00 | 0.00 | 0.00 | 99 | 1019.2 |
| 20260901144301 | 59 | 119 | 0.0 | 0.0 | 0.00 | 0.00 | 0.00 | 99 | 1019.2 |
| 20260901143756 | 59 | 141 | 0.0 | 0.0 | 0.00 | 0.00 | 0.00 | 99 | 1019.1 |
| 20260901143253 | 59 | 145 | 0.0 | 0.0 | 0.00 | 0.00 | 0.00 | 99 | 1018.9 |
| 20260901142749 | 59 | 154 | 0.0 | 0.0 | 0.00 | 0.00 | 0.00 | 99 | 1018.9 |
| 20260901142247 | 58 | 141 | 0.0 | 0.0 | 0.00 | 0.00 | 0.00 | 99 | 1018.9 |
| 20260901141742 | 58 | 137 | 0.0 | 0.0 | 0.00 | 0.00 | 0.00 | 99 | 1018.9 |
| 20260901141237 | 58 | 169 | 0.0 | 0.0 | 0.00 | 0.00 | 0.00 | 99 | 1018.8 |
| 20260901140736 | 57 | 144 | 0.0 | 0.0 | 0.00 | 0.00 | 0.00 | 99 | 1018.7 |
| 20260901140234 | 57 | 121 | 0.0 | 0.0 | 0.00 | 0.00 | 0.00 | 99 | 1018.3 |
| 20260901135729 | 57 | 133 | 0.0 | 0.0 | 0.00 | 0.00 | 0.00 | 99 | 1018.5 |
| 20260901135224 | 57 | 142 | 0.0 | 0.0 | 0.00 | 0.00 | 0.00 | 99 | 1018.3 |
| 20260901134720 | 57 | 142 | 0.0 | 0.0 | 0.00 | 0.00 | 0.00 | 99 | 1018.4 |
| 20260901134220 | 57 | 131 | 0.0 | 1.0 | 0.00 | 0.00 | 0.00 | 99 | 1018.2 |
| 20260901133719 | 57 | 103 | 2.0 | 3.0 | 0.00 | 0.00 | 0.00 | 99 | 1018.3 |
| 20260901133218 | 57 | 102 | 1.0 | 2.0 | 0.00 | 0.00 | 0.00 | 99 | 1018.1 |
| 20260901132718 | 57 | 110 | 0.0 | 1.0 | 0.00 | 0.00 | 0.00 | 99 | 1018.3 |
| 20260901132218 | 57 | 121 | 0.0 | 3.0 | 0.00 | 0.00 | 0.00 | 99 | 1018.1 |
| 20260901131713 | 57 | 94 | 2.0 | 4.0 | 0.00 | 0.00 | 0.00 | 99 | 1018.2 |
| 20260901131206 | 57 | 82 | 2.0 | 4.0 | 0.00 | 0.00 | 0.00 | 99 | 1018.2 |
| 20260901130701 | 58 | 122 | 0.0 | 2.0 | 0.00 | 0.00 | 0.00 | 99 | 1018.3 |
| 20260901130200 | 58 | 114 | 0.0 | 1.0 | 0.00 | 0.00 | 0.00 | 99 | 1018.5 |
| 20260901125659 | 58 | 112 | 0.0 | 1.0 | 0.00 | 0.00 | 0.00 | 99 | 1018.5 |
| 20260901125154 | 58 | 148 | 0.0 | 0.0 | 0.00 | 0.00 | 0.00 | 99 | 1018.5 |
| 20260901124649 | 58 | 134 | 0.0 | 0.0 | 0.00 | 0.00 | 0.00 | 99 | 1018.4 |
| 20260901124148 | 58 | 113 | 0.0 | 0.0 | 0.00 | 0.00 | 0.00 | 99 | 1018.4 |
| 20260901123644 | 58 | 133 | 0.0 | 0.0 | 0.00 | 0.00 | 0.00 | 99 | 1018.4 |
| 20260901123143 | 58 | 112 | 0.0 | 0.0 | 0.00 | 0.00 | 0.00 | 99 | 1018.5 |
| 20260901122641 | 58 | 126 | 0.0 | 0.0 | 0.00 | 0.00 | 0.00 | 99 | 1018.6 |
| 20260901122137 | 58 | 141 | 0.0 | 0.0 | 0.00 | 0.00 | 0.00 | 99 | 1018.4 |
| 20260901121631 | 58 | 140 | 0.0 | 0.0 | 0.00 | 0.00 | 0.00 | 99 | 1018.5 |
| 20260901121126 | 58 | 140 | 0.0 | 0.0 | 0.00 | 0.00 | 0.00 | 99 | 1018.5 |
| 20260901120621 | 58 | 139 | 0.0 | 0.0 | 0.00 | 0.00 | 0.00 | 99 | 1018.4 |
| 20260901120116 | 58 | 137 | 0.0 | 0.0 | 0.00 | 0.00 | 0.00 | 99 | 1018.4 |
| 20260901115611 | 58 | 131 | 0.0 | 0.0 | 0.00 | 0.00 | 0.00 | 99 | 1018.2 |
| 20260901115108 | 58 | 154 | 0.0 | 0.0 | 0.00 | 0.00 | 0.00 | 99 | 1018.1 |
| 20260901114604 | 58 | 161 | 0.0 | 1.0 | 0.00 | 0.00 | 0.00 | 99 | 1018.3 |
| 20260901114102 | 58 | 149 | 0.0 | 0.0 | 0.00 | 0.00 | 0.00 | 99 | 1018.3 |
| 20260901113601 | 58 | 181 | 0.0 | 2.0 | 0.00 | 0.00 | 0.00 | 99 | 1018.3 |
| 20260901113052 | 58 | 153 | 0.0 | 0.0 | 0.00 | 0.00 | 0.00 | 99 | 1018.4 |
| 20260901112551 | 58 | 173 | 0.0 | 0.0 | 0.00 | 0.00 | 0.00 | 99 | 1018.4 |
| 20260901112045 | 58 | 174 | 0.0 | 0.0 | 0.00 | 0.00 | 0.00 | 99 | 1018.2 |
| 20260901111544 | 58 | 114 | 0.0 | 0.0 | 0.00 | 0.00 | 0.00 | 99 | 1018.3 |
| 20260901111043 | 58 | 155 | 0.0 | 0.0 | 0.00 | 0.00 | 0.00 | 99 | 1018.3 |
| 20260901110539 | 57 | 82 | 0.0 | 0.0 | 0.00 | 0.00 | 0.00 | 99 | 1018.3 |
| 20260901110034 | 57 | 158 | 0.0 | 0.0 | 0.00 | 0.00 | 0.00 | 99 | 1018.6 |
| 20260901105531 | 57 | 272 | 2.0 | 2.0 | 0.00 | 0.00 | 0.00 | 99 | 1018.2 |
| 20260901105030 | 56 | 222 | 1.0 | 2.0 | 0.00 | 0.00 | 0.00 | 99 | 1018.2 |
| 20260901104526 | 57 | 195 | 0.0 | 1.0 | 0.00 | 0.00 | 0.00 | 99 | 1018.2 |
| 20260901104021 | 57 | 172 | 0.0 | 0.0 | 0.00 | 0.00 | 0.00 | 99 | 1018.1 |
| 20260901103515 | 58 | 155 | 0.0 | 0.0 | 0.00 | 0.00 | 0.00 | 99 | 1017.9 |
| 20260901103012 | 58 | 131 | 0.0 | 0.0 | 0.00 | 0.00 | 0.00 | 99 | 1018.0 |